[[{"header":{"parameterUnit":"m.s-1","parameterCategory":1,"la1":30.2991,"la2":30.254,"lo1":-89.0895,"lo2":-89.0444,"dy":0.0017,"dx":0.0017,"nx":28,"ny":28,"refTime":"2024-12-03T03:00:00:Z","depth":0,"parameterNumber":2,"parameterNumberName":"U-component_of_WINDS"},"data":[0,0,0,0,0,0,0,0,0,0,0,0,0,0,0,0,0,0,0,0,0,0,0,0,0,0,0,0,0,0,0,0,0,0,0,0,0,0,0,0,0,0,0,0,0,0,0,0,0,0,0,0,0,0,0,0,0,0,-3.719,-3.719,0,-3.7199,-3.72,-3.72,-3.7107,-3.7104,-3.7102,-3.7099,-3.7108,-3.711,-3.7113,0,0,0,0,0,0,0,0,0,0,0,0,0,-3.7091,-3.7093,-3.719,-3.719,-3.719,-3.7199,-3.72,-3.72,-3.7107,-3.7104,-3.7101,-3.7098,-3.7107,-3.711,-3.7113,0,0,0,0,0,0,0,0,0,0,0,0,0,-3.7121,-3.7094,-3.719,-3.7145,-3.7141,-3.7199,-3.72,-3.72,-3.7108,-3.7104,-3.71,-3.7097,-3.7106,-3.711,-3.7114,-3.7215,0,0,-3.7126,-3.7127,0,0,0,0,0,0,0,0,-3.7119,-3.7124,-3.7152,-3.7148,-3.7144,-3.7148,-3.7168,-3.7205,-3.7109,-3.7121,-3.7099,-3.7095,-3.7124,-3.7126,-3.7137,-3.7215,-3.7216,-3.7126,-3.7128,-3.713,-3.7131,0,0,0,0,0,0,0,-3.7117,-3.7123,-3.7194,-3.7152,-3.7148,-3.7124,-3.7124,-3.7174,-3.7144,-3.7119,-3.7112,-3.7115,-3.7121,-3.7133,-3.7136,-3.7216,-3.7126,-3.7129,-3.7132,-3.7133,-3.7377,-3.7381,0,0,0,0,0,0,-3.7121,-3.7122,-3.7193,-3.7194,-3.7122,-3.7129,-3.7129,-3.7151,-3.7143,-3.7138,-3.7118,-3.7111,-3.7128,-3.7132,-3.7136,-3.7253,-3.713,-3.7134,-3.7136,-3.7373,-3.7378,-3.7383,0,0,0,0,0,0,-3.7119,-3.7128,-3.7193,-3.7156,-3.7163,-3.7135,-3.716,-3.7153,-3.7164,-3.7142,-3.7136,-3.7136,-3.7125,-3.7131,-3.7196,-3.7252,-3.7136,-3.7139,-3.7368,-3.7375,-3.738,-3.7488,0,0,0,0,0,0,-3.7117,-3.7128,-3.7166,-3.7158,-3.7165,-3.7253,-3.7163,-3.7156,-3.7171,-3.7162,-3.7157,-3.7153,-3.7123,-3.7191,-3.72,-3.7255,-3.7142,-3.7363,-3.7371,-3.7378,-3.7479,-3.7497,-3.7512,0,0,0,0,0,-3.7114,-3.7196,-3.7169,-3.7178,-3.7212,-3.7256,-3.726,-3.7225,-3.7176,-3.7214,-3.72,-3.7153,-3.7245,-3.7198,-3.7208,-3.7265,-3.7359,-3.7369,-3.7378,-3.7471,-3.7493,-3.7512,0,0,0,0,0,0,-3.7211,-3.7194,-3.7164,-3.7246,-3.7253,-3.7241,-3.7287,-3.7249,-3.727,-3.7259,-3.7214,-3.7214,-3.7286,-3.7283,-3.7231,-3.7362,-3.7294,-3.7305,-3.7361,-3.7382,-3.7398,-3.7396,-3.7145,0,0,0,0,0,-3.7243,-3.728,-3.7263,-3.7337,-3.7343,-3.7315,-3.7333,-3.7305,-3.731,-3.7313,-3.7303,-3.7311,-3.7341,-3.7362,-3.7388,-3.7479,-3.7476,-3.7523,-3.754,-3.7554,-3.7563,-3.761,-3.763,-3.7413,-3.7413,-3.7413,0,0,-3.7307,-3.7302,-3.7329,-3.7357,-3.7359,-3.7398,-3.7318,-3.7363,-3.7391,-3.7319,-3.738,-3.7374,-3.7379,-3.7457,-3.7491,-3.7456,-3.7623,-3.7565,-3.7576,-3.7578,-3.7621,-3.7642,-3.766,-3.7419,-3.7418,-3.7417,0,0,-3.7444,-3.7445,-3.7506,-3.7511,-3.7516,-3.7497,-3.7512,-3.7506,-3.7499,-3.7559,-3.7506,-3.754,-3.7593,-3.7598,-3.7608,-3.775,-3.7706,-3.776,-3.7845,-3.7891,-3.7908,-3.7922,-3.7971,-3.7989,-3.777,-3.7771,-3.7771,0,-3.7522,-3.758,-3.7542,-3.7591,-3.7605,-3.7543,-3.7604,-3.761,-3.7624,-3.7635,-3.7596,-3.7662,-3.7661,-3.7739,-3.7773,-3.7784,-3.7799,-3.7758,-3.7908,-3.7923,-3.7936,-3.7982,-3.8,-3.7777,-3.7776,-3.7775,-3.7775,0,-3.7676,-3.7717,-3.7766,-3.7781,-3.78,-3.7855,-3.7826,-3.785,-3.7822,-3.7807,-3.7869,-3.7867,-3.7891,-3.7908,-3.7881,-3.7983,-3.796,-3.7916,-3.7846,-3.7964,-3.8006,-3.8023,-3.7786,-3.7784,-3.7782,-3.778,0,0,-3.7871,-3.7866,-3.7884,-3.789,-3.7893,-3.7923,-3.7976,-3.8,-3.8021,-3.8034,-3.8076,-3.8124,-3.8083,-3.8094,-3.8067,-3.8108,-3.8217,-3.8058,-3.8057,-3.8085,-3.8328,-3.8359,-3.8379,-3.819,-3.8193,-3.8196,-3.8326,0,-3.8002,-3.8091,-3.806,-3.815,-3.8186,-3.813,-3.8175,-3.8182,-3.817,-3.8199,-3.8186,-3.822,-3.8165,-3.8171,-3.8209,-3.8196,-3.8265,-3.8187,-3.8227,-3.8229,-3.8224,-3.8402,-3.8434,-3.8557,-3.8343,-3.8345,-3.8347,0,-3.8166,-3.8186,-3.828,-3.8276,-3.829,-3.8331,-3.8351,-3.8381,-3.8387,-3.8376,-3.839,-3.8354,-3.8405,-3.8337,-3.8406,-3.8353,-3.8369,-3.8365,-3.8369,-3.8368,-3.8293,-3.8403,-3.8596,-3.8613,-3.8373,-3.8371,-3.8369,0,-3.8296,-3.8346,-3.8408,-3.8416,-3.8413,-3.8444,-3.8444,-3.8446,-3.8463,-3.8482,-3.8492,-3.8516,-3.8529,-3.8548,-3.852,-3.8474,-3.8592,-3.8523,-3.8583,-3.8583,-3.8607,-3.8605,-3.8802,-3.8623,-3.8623,-3.8622,-3.8622,0,-3.8444,-3.8503,-3.8466,-3.8505,-3.8569,-3.8534,-3.8599,-3.8593,-3.8596,-3.8631,-3.8585,-3.8619,-3.8581,-3.8612,-3.8591,-3.865,-3.8657,-3.8648,-3.8641,-3.865,-3.8651,-3.8657,-3.8647,-3.8627,-3.8626,-3.8625,-3.8624,0,-3.8598,-3.8576,-3.864,-3.8633,-3.8633,-3.8681,-3.8675,-3.8709,-3.8696,-3.8741,-3.875,-3.8728,-3.8762,-3.8737,-3.8771,-3.8757,-3.8834,-3.8816,-3.8831,-3.8825,-3.8886,-3.8879,-3.909,-3.9115,-3.8923,-3.8925,-3.8927,0,-3.8692,-3.8736,-3.8734,-3.8755,-3.8759,-3.8793,-3.881,-3.8778,-3.8798,-3.8809,-3.8842,-3.8873,-3.8894,-3.8952,-3.8938,-3.8964,-3.8945,-3.9017,-3.8948,-3.8956,-3.8942,-3.8939,-3.8942,-3.903,-3.9032,-3.9034,-3.9036,0,-3.886,-3.8847,-3.8874,-3.8898,-3.892,-3.8938,-3.8951,-3.8971,-3.8938,-3.8963,-3.8997,-3.9014,-3.9049,-3.9079,-3.9101,-3.91,-3.9062,-3.9058,-3.9073,-3.9081,-3.9086,-3.9081,-3.8866,-3.9052,-3.9051,-3.9049,-3.9049,-3.9048,-3.8984,-3.9021,-3.9025,-3.9057,-3.9064,-3.9078,-3.911,-3.9101,-3.9129,-3.9155,-3.9135,-3.9176,-3.9181,-3.9206,-3.9211,-3.9242,-3.9212,-3.9234,-3.9239,-3.9244,-3.9251,-3.9085,-3.9246,-3.9246,-3.9245,-3.9245,-3.9244,0,-3.9147,-3.9148,-3.9178,-3.9198,-3.9223,-3.9188,-3.9201,-3.9224,-3.9261,-3.927,-3.9293,-3.9332,-3.9362,-3.9352,-3.9378,-3.9405,-3.9388,-3.9413,-3.9408,-3.9409,-3.9278,-3.9261,-3.9426,-3.9426,-3.9426,-3.9426,-3.9426,-3.9426,-3.9235,-3.9294,-3.9283,-3.9345,-3.9345,-3.9385,-3.9395,-3.9408,-3.9414,-3.9461,-3.9485,-3.9479,-3.9481,-3.9507,-3.9532,-3.9528,-3.9539,-3.9569,-3.9559,-3.9436,-3.9418,-3.9401,-3.9385,-3.9573,-3.9573,-3.9687,-3.9688,-3.9688]},{"header":{"parameterUnit":"m.s-1","parameterCategory":1,"la1":30.2991,"la2":30.254,"lo1":-89.0895,"lo2":-89.0444,"dy":0.0017,"dx":0.0017,"nx":28,"ny":28,"refTime":"2024-12-03T03:00:00:Z","depth":0,"parameterNumber":3,"parameterNumberName":"V-component_of_WINDS"},"data":[0,0,0,0,0,0,0,0,0,0,0,0,0,0,0,0,0,0,0,0,0,0,0,0,0,0,0,0,0,0,0,0,0,0,0,0,0,0,0,0,0,0,0,0,0,0,0,0,0,0,0,0,0,0,0,0,0,0,1.0752,1.0751,0,1.0671,1.067,1.0669,1.0574,1.0573,1.0571,1.057,1.0483,1.0483,1.0482,0,0,0,0,0,0,0,0,0,0,0,0,0,1.0824,1.0823,1.0752,1.0751,1.075,1.0671,1.067,1.0669,1.0574,1.0573,1.0571,1.0569,1.0484,1.0483,1.0482,0,0,0,0,0,0,0,0,0,0,0,0,0,1.0772,1.0823,1.0752,1.0694,1.0688,1.0671,1.067,1.0668,1.0575,1.0573,1.057,1.0568,1.0484,1.0483,1.0481,1.0515,0,0,1.0477,1.0476,0,0,0,0,0,0,0,0,1.0776,1.077,1.0703,1.0698,1.0691,1.0631,1.0663,1.0617,1.0575,1.0618,1.057,1.0567,1.0534,1.0528,1.0518,1.0511,1.0507,1.0477,1.0476,1.0475,1.0475,0,0,0,0,0,0,0,1.0779,1.0773,1.072,1.0702,1.0695,1.0671,1.0661,1.0654,1.0589,1.0614,1.0607,1.0598,1.053,1.0519,1.0515,1.0506,1.0477,1.0476,1.0475,1.0474,1.0525,1.0527,0,0,0,0,0,0,1.0792,1.0776,1.0722,1.0717,1.0729,1.0671,1.066,1.0652,1.0588,1.0577,1.06,1.0594,1.0523,1.0517,1.0511,1.0548,1.0475,1.0474,1.0473,1.0523,1.0525,1.0528,0,0,0,0,0,0,1.0794,1.0788,1.0726,1.0745,1.0735,1.0672,1.0664,1.0652,1.0641,1.0578,1.0566,1.0602,1.0521,1.0514,1.0516,1.0544,1.0473,1.0472,1.052,1.0523,1.0526,1.0621,0,0,0,0,0,0,1.0796,1.0789,1.0802,1.0746,1.0735,1.0732,1.0665,1.0651,1.0639,1.063,1.0576,1.0565,1.0519,1.0518,1.0514,1.054,1.0471,1.0517,1.0521,1.0525,1.0615,1.0627,1.0638,0,0,0,0,0,1.0799,1.0831,1.0803,1.0797,1.0749,1.0734,1.0727,1.0674,1.0641,1.0653,1.0614,1.0567,1.0541,1.0519,1.0514,1.054,1.0515,1.052,1.0525,1.061,1.0625,1.0637,0,0,0,0,0,0,1.089,1.0822,1.0791,1.0806,1.0777,1.0718,1.0732,1.0691,1.067,1.0662,1.0596,1.0585,1.0595,1.0567,1.0544,1.057,1.0521,1.0526,1.0588,1.0602,1.0613,1.0619,1.047,0,0,0,0,0,1.0912,1.0906,1.0847,1.0866,1.0853,1.0795,1.0786,1.0748,1.0715,1.0702,1.0662,1.0631,1.0615,1.0607,1.0589,1.0611,1.0598,1.0626,1.0637,1.0647,1.0651,1.0662,1.0674,1.0544,1.0544,1.0544,0,0,1.0957,1.0919,1.0919,1.0883,1.0856,1.0851,1.0785,1.0782,1.0778,1.07,1.0701,1.0671,1.0631,1.0644,1.0647,1.0621,1.0684,1.0653,1.0661,1.066,1.0668,1.0681,1.0692,1.0547,1.0547,1.0546,0,0,1.1037,1.1008,1.1021,1.0995,1.0956,1.0917,1.0921,1.0869,1.0846,1.0846,1.0788,1.0781,1.0756,1.0731,1.0715,1.0787,1.0744,1.0783,1.0842,1.0853,1.0863,1.0872,1.0899,1.0909,1.0788,1.0788,1.0788,0,1.1098,1.1089,1.1032,1.1034,1.1019,1.0951,1.0964,1.0941,1.0898,1.089,1.0861,1.083,1.0798,1.0804,1.0822,1.0811,1.0813,1.0789,1.0867,1.0875,1.0882,1.0907,1.0917,1.0793,1.0793,1.0792,1.0792,0,1.1166,1.116,1.1175,1.1137,1.1124,1.1132,1.1076,1.107,1.1033,1.0998,1.0998,1.0959,1.0933,1.0931,1.0894,1.0932,1.0918,1.0879,1.0829,1.0901,1.0923,1.0932,1.0801,1.0799,1.0797,1.0796,0,0,1.13,1.1232,1.1238,1.122,1.1172,1.1167,1.1171,1.1147,1.1143,1.1116,1.1118,1.1099,1.1064,1.1046,1.1005,1.1015,1.1076,1.0975,1.0973,1.0996,1.1117,1.1147,1.1159,1.1047,1.1048,1.105,1.1121,0,1.1371,1.1376,1.1326,1.1343,1.1338,1.1274,1.1277,1.1248,1.1215,1.1206,1.1169,1.1157,1.1111,1.11,1.1106,1.1067,1.11,1.1061,1.1048,1.1048,1.1061,1.117,1.1202,1.1271,1.1129,1.113,1.1131,0,1.1455,1.1435,1.1453,1.1405,1.1401,1.1405,1.138,1.1372,1.1337,1.1313,1.1294,1.1248,1.1249,1.1201,1.1201,1.1176,1.1168,1.1148,1.1149,1.1146,1.1095,1.1171,1.1291,1.1303,1.1144,1.1143,1.1142,0,1.1553,1.1529,1.1537,1.1524,1.1468,1.1473,1.145,1.1414,1.1403,1.1381,1.1373,1.135,1.1338,1.1322,1.1271,1.1241,1.1277,1.1225,1.1257,1.1259,1.1268,1.1268,1.139,1.1262,1.1261,1.1261,1.1261,0,1.1639,1.1652,1.1581,1.1586,1.1599,1.1541,1.1556,1.1526,1.1495,1.1493,1.1435,1.1434,1.1367,1.1359,1.1319,1.1326,1.132,1.1301,1.129,1.1306,1.1309,1.13,1.1294,1.1264,1.1263,1.1263,1.1262,0,1.175,1.1703,1.1707,1.1655,1.1642,1.1655,1.161,1.1612,1.1576,1.1574,1.157,1.1514,1.1501,1.145,1.1424,1.1397,1.1417,1.1396,1.1429,1.1423,1.1458,1.1456,1.1578,1.1592,1.1455,1.1456,1.1458,0,1.1808,1.1818,1.1767,1.1762,1.1742,1.1735,1.1724,1.1668,1.1659,1.1622,1.1629,1.1612,1.1595,1.1577,1.1534,1.1514,1.1492,1.1537,1.1489,1.1506,1.1494,1.1495,1.1496,1.1547,1.1549,1.155,1.1552,0,1.1917,1.1893,1.1881,1.1861,1.185,1.1831,1.1808,1.1807,1.1745,1.1738,1.1725,1.1712,1.1687,1.1671,1.1644,1.1619,1.1576,1.1567,1.1574,1.1591,1.161,1.1601,1.1458,1.1565,1.1563,1.1562,1.1562,1.1561,1.2004,1.201,1.1976,1.1964,1.1942,1.1922,1.1922,1.1888,1.1876,1.1852,1.1819,1.1811,1.1777,1.1737,1.1716,1.1709,1.1684,1.1693,1.1695,1.1699,1.1708,1.1611,1.1703,1.1703,1.1702,1.1702,1.1702,0,1.211,1.2086,1.2076,1.2047,1.2038,1.1999,1.1972,1.1967,1.1961,1.1933,1.1919,1.1905,1.1889,1.1845,1.1825,1.1828,1.1807,1.1825,1.1824,1.1819,1.173,1.1727,1.1842,1.1842,1.1842,1.1842,1.1842,1.1842,1.2165,1.2173,1.2146,1.2143,1.2117,1.211,1.2099,1.2081,1.2059,1.2046,1.2034,1.2005,1.1971,1.1949,1.1933,1.192,1.1916,1.194,1.1921,1.1839,1.1826,1.1813,1.181,1.194,1.194,1.2011,1.2012,1.2012]}]]